Simultaneous Nadir Overpasses (SNOs) Predictions

Prediction of SNOs between FY3D and METOP-C Satellite Orbit:

Table of predicted SNOs for the next 14.0 days since TLE Epoch: 3/18/2023
Index Date (FY3D) Time (FY3D) Lat,Lon (FY3D) SZA (FY3D ) Date (METOP-C) Time (METOP-C) Lat,Lon (METOP-C) SZA (METOP-C ) Distance(km) Time Diff (sec)
1 03/18/2023 03:08:28 74.57, 129.12 75.65 03/18/2023 03:07:23 74.55, 129.19 75.64 2.99 65
2 03/18/2023 03:59:12 -74.55, -63.51 104.39 03/18/2023 03:58:06 -74.53, -63.55 104.40 2.91 66
3 03/18/2023 04:49:59 74.54, 103.81 75.60 03/18/2023 04:48:45 74.53, 103.79 75.59 2.07 74
4 03/18/2023 05:40:42 -74.48, -88.69 104.49 03/18/2023 05:39:28 -74.50, -88.95 104.45 8.47 74
5 03/18/2023 06:31:23 74.18, 79.40 75.18 03/18/2023 06:30:13 74.21, 77.63 75.27 53.66 70
6 03/18/2023 07:22:06 -74.11,-113.11 104.91 03/18/2023 07:20:57 -74.14,-115.23 104.82 64.52 69



Historial Predications of SNOs between FY3D and METOP-C
